| time (UTC) | temp F | wind direction | speed MPH | gust MPH | rain 1hr in | rain 24hr in | rain mn in | humidity % | barometer mb |
| 20260507033045 | 54 | 85 | 0.0 | 3.0 | 0.00 | 0.00 | 0.00 | 84 | 1010.9 |
| 20260507031551 | 54 | 80 | 1.0 | 4.0 | 0.00 | 0.00 | 0.00 | 83 | 1010.6 |
| 20260507030022 | 54 | 91 | 1.0 | 3.0 | 0.00 | 0.00 | 0.00 | 83 | 1010.6 |
| 20260507024524 | 54 | 93 | 0.0 | 0.0 | 0.00 | 0.00 | 0.00 | 82 | 1010.5 |
| 20260507023033 | 55 | 84 | 0.0 | 2.0 | 0.00 | 0.00 | 0.00 | 81 | 1010.4 |
| 20260507021534 | 56 | 85 | 1.0 | 3.0 | 0.00 | 0.00 | 0.00 | 80 | 1010.2 |
| 20260507020016 | 57 | 87 | 1.0 | 3.0 | 0.00 | 0.00 | 0.00 | 78 | 1010.1 |
| 20260507014528 | 58 | 85 | 2.0 | 3.0 | 0.00 | 0.00 | 0.00 | 76 | 1009.9 |
| 20260507013022 | 59 | 86 | 1.0 | 4.0 | 0.00 | 0.00 | 0.00 | 73 | 1009.7 |
| 20260507011528 | 62 | 65 | 0.0 | 3.0 | 0.00 | 0.00 | 0.00 | 69 | 1009.4 |
| 20260507010015 | 63 | 63 | 0.0 | 1.0 | 0.00 | 0.00 | 0.00 | 66 | 1009.1 |
| 20260507004521 | 63 | 58 | 0.0 | 3.0 | 0.00 | 0.00 | 0.00 | 67 | 1009.1 |
| 20260507003030 | 63 | 53 | 0.0 | 5.0 | 0.00 | 0.00 | 0.00 | 66 | 1009.1 |
| 20260507001537 | 63 | 55 | 1.0 | 6.0 | 0.00 | 0.00 | 0.00 | 65 | 1009.0 |
| 20260507000031 | 64 | 68 | 1.0 | 7.0 | 0.00 | 0.00 | 0.00 | 64 | 1008.9 |
| 20260506234521 | 63 | 19 | 2.0 | 6.0 | 0.00 | 0.00 | 0.00 | 65 | 1008.7 |
| 20260506233024 | 62 | 31 | 2.0 | 8.0 | 0.00 | 0.00 | 0.00 | 66 | 1008.5 |
| 20260506231528 | 63 | 342 | 5.0 | 10.0 | 0.00 | 0.00 | 0.00 | 66 | 1008.3 |
| 20260506230007 | 62 | 23 | 2.0 | 13.0 | 0.00 | 0.00 | 0.00 | 67 | 1008.4 |
| 20260506224511 | 62 | 30 | 2.0 | 13.0 | 0.00 | 0.00 | 0.00 | 67 | 1008.3 |
| 20260506223013 | 62 | 15 | 3.0 | 12.0 | 0.00 | 0.00 | 0.00 | 67 | 1008.2 |
| 20260506221525 | 62 | 34 | 5.0 | 14.0 | 0.00 | 0.00 | 0.00 | 66 | 1008.1 |
| 20260506220018 | 63 | 58 | 4.0 | 12.0 | 0.00 | 0.00 | 0.00 | 66 | 1007.8 |
| 20260506214514 | 64 | 345 | 6.0 | 10.0 | 0.00 | 0.00 | 0.00 | 62 | 1007.9 |
| 20260506213016 | 64 | 16 | 6.0 | 16.0 | 0.00 | 0.00 | 0.00 | 64 | 1007.9 |
| 20260506211518 | 64 | 22 | 8.0 | 16.0 | 0.00 | 0.00 | 0.00 | 65 | 1007.9 |
| 20260506210007 | 65 | 9 | 9.0 | 15.0 | 0.00 | 0.00 | 0.00 | 64 | 1007.9 |
| 20260506204510 | 65 | 91 | 4.0 | 12.0 | 0.00 | 0.00 | 0.00 | 63 | 1008.0 |
| 20260506203011 | 66 | 30 | 4.0 | 9.0 | 0.00 | 0.00 | 0.00 | 62 | 1007.9 |
| 20260506201518 | 65 | 55 | 1.0 | 15.0 | 0.00 | 0.00 | 0.00 | 64 | 1008.1 |
| 20260506200003 | 64 | 15 | 3.0 | 9.0 | 0.00 | 0.00 | 0.00 | 66 | 1008.4 |
| 20260506194507 | 64 | 136 | 2.0 | 10.0 | 0.00 | 0.00 | 0.00 | 66 | 1008.3 |
| 20260506193006 | 64 | 110 | 2.0 | 10.0 | 0.00 | 0.00 | 0.00 | 65 | 1008.1 |
| 20260506191509 | 64 | 357 | 5.0 | 10.0 | 0.00 | 0.00 | 0.00 | 63 | 1008.3 |
| 20260506190101 | 64 | 137 | 2.0 | 9.0 | 0.00 | 0.00 | 0.00 | 65 | 1008.5 |
| 20260506184556 | 63 | 30 | 4.0 | 14.0 | 0.00 | 0.00 | 0.00 | 67 | 1008.6 |
| 20260506183058 | 63 | 343 | 2.0 | 7.0 | 0.00 | 0.00 | 0.00 | 64 | 1008.6 |
| 20260506181501 | 62 | 18 | 5.0 | 11.0 | 0.00 | 0.00 | 0.00 | 66 | 1008.6 |
| 20260506180058 | 60 | 8 | 5.0 | 15.0 | 0.00 | 0.00 | 0.00 | 69 | 1008.7 |
| 20260506174552 | 60 | 34 | 4.0 | 13.0 | 0.00 | 0.00 | 0.00 | 68 | 1008.7 |
| 20260506173055 | 59 | 48 | 2.0 | 9.0 | 0.00 | 0.00 | 0.00 | 69 | 1009.2 |
| 20260506171601 | 58 | 49 | 5.0 | 15.0 | 0.00 | 0.00 | 0.00 | 70 | 1009.1 |
| 20260506170043 | 59 | 290 | 1.0 | 13.0 | 0.00 | 0.00 | 0.00 | 70 | 1008.7 |
| 20260506164538 | 57 | 351 | 7.0 | 13.0 | 0.00 | 0.00 | 0.00 | 70 | 1009.1 |
| 20260506163057 | 57 | 20 | 6.0 | 13.0 | 0.00 | 0.00 | 0.00 | 70 | 1009.2 |
| 20260506161541 | 57 | 352 | 5.0 | 11.0 | 0.00 | 0.00 | 0.00 | 70 | 1008.8 |
| 20260506160021 | 56 | 32 | 9.0 | 21.0 | 0.00 | 0.00 | 0.00 | 70 | 1008.1 |
| 20260506154513 | 55 | 2 | 7.0 | 20.0 | 0.00 | 0.00 | 0.00 | 71 | 1008.1 |
| 20260506153010 | 54 | 27 | 7.0 | 18.0 | 0.00 | 0.00 | 0.00 | 74 | 1008.3 |
| 20260506151518 | 54 | 36 | 4.0 | 12.0 | 0.00 | 0.00 | 0.00 | 76 | 1009.0 |
| 20260506150009 | 52 | 49 | 2.0 | 4.0 | 0.00 | 0.00 | 0.00 | 76 | 1010.0 |
| 20260506144523 | 52 | 46 | 0.0 | 6.0 | 0.00 | 0.00 | 0.00 | 77 | 1010.5 |
| 20260506143020 | 52 | 28 | 3.0 | 8.0 | 0.00 | 0.00 | 0.00 | 77 | 1010.1 |
| 20260506141515 | 51 | 30 | 4.0 | 10.0 | 0.00 | 0.00 | 0.00 | 79 | 1009.1 |
| 20260506140104 | 51 | 56 | 3.0 | 12.0 | 0.00 | 0.00 | 0.00 | 80 | 1008.6 |
| 20260506134502 | 50 | 32 | 3.0 | 9.0 | 0.00 | 0.00 | 0.00 | 81 | 1008.8 |
| 20260506133003 | 50 | 15 | 0.0 | 5.0 | 0.00 | 0.00 | 0.00 | 82 | 1009.1 |
| 20260506131605 | 50 | 18 | 3.0 | 9.0 | 0.00 | 0.00 | 0.00 | 82 | 1008.6 |
| 20260506130041 | 50 | 356 | 4.0 | 11.0 | 0.00 | 0.00 | 0.00 | 84 | 1008.0 |
| 20260506124539 | 50 | 50 | 4.0 | 9.0 | 0.00 | 0.00 | 0.00 | 84 | 1007.5 |
| 20260506123039 | 50 | 60 | 4.0 | 14.0 | 0.00 | 0.00 | 0.00 | 85 | 1007.1 |
| 20260506121545 | 50 | 30 | 3.0 | 9.0 | 0.00 | 0.00 | 0.00 | 86 | 1006.8 |
| 20260506120029 | 50 | 26 | 3.0 | 10.0 | 0.00 | 0.00 | 0.00 | 86 | 1006.9 |
| 20260506114541 | 50 | 44 | 2.0 | 13.0 | 0.00 | 0.00 | 0.00 | 87 | 1006.9 |
| 20260506113039 | 50 | 348 | 9.0 | 16.0 | 0.00 | 0.00 | 0.00 | 86 | 1006.9 |
| 20260506111541 | 51 | 335 | 8.0 | 16.0 | 0.00 | 0.00 | 0.00 | 85 | 1007.2 |
| 20260506110016 | 51 | 48 | 7.0 | 19.0 | 0.00 | 0.00 | 0.00 | 85 | 1006.6 |
| 20260506104511 | 51 | 19 | 6.0 | 14.0 | 0.00 | 0.00 | 0.00 | 84 | 1006.2 |
| 20260506103021 | 51 | 355 | 5.0 | 11.0 | 0.00 | 0.00 | 0.00 | 84 | 1006.0 |
| 20260506101524 | 51 | 39 | 5.0 | 12.0 | 0.00 | 0.00 | 0.00 | 83 | 1006.0 |
| 20260506100004 | 51 | 46 | 3.0 | 12.0 | 0.00 | 0.00 | 0.00 | 82 | 1005.9 |
| 20260506094501 | 51 | 19 | 3.0 | 15.0 | 0.00 | 0.00 | 0.00 | 82 | 1005.7 |
| 20260506093102 | 51 | 40 | 7.0 | 14.0 | 0.00 | 0.00 | 0.00 | 82 | 1005.4 |
| 20260506091559 | 51 | 42 | 5.0 | 12.0 | 0.00 | 0.00 | 0.00 | 83 | 1004.9 |
| 20260506090041 | 51 | 37 | 2.0 | 8.0 | 0.00 | 0.00 | 0.00 | 82 | 1004.7 |
| 20260506084550 | 52 | 34 | 2.0 | 7.0 | 0.00 | 0.00 | 0.00 | 84 | 1004.6 |
| 20260506083049 | 51 | 25 | 5.0 | 9.0 | 0.00 | 0.00 | 0.00 | 86 | 1004.7 |
| 20260506081551 | 51 | 12 | 2.0 | 7.0 | 0.00 | 0.00 | 0.00 | 85 | 1004.5 |
| 20260506073025 | 52 | 52 | 2.0 | 7.0 | 0.00 | 0.00 | 0.00 | 83 | 1004.3 |
| 20260506071531 | 52 | 18 | 3.0 | 7.0 | 0.00 | 0.00 | 0.00 | 84 | 1004.6 |
| 20260506061529 | 52 | 355 | 3.0 | 5.0 | 0.00 | 0.00 | 0.00 | 86 | 1004.0 |
| 20260506044550 | 54 | 60 | 1.0 | 4.0 | 0.00 | 0.00 | 0.00 | 81 | 1003.5 |
| 20260506043041 | 55 | 47 | 1.0 | 5.0 | 0.00 | 0.00 | 0.00 | 81 | 1003.6 |
| 20260506041546 | 55 | 49 | 3.0 | 10.0 | 0.00 | 0.00 | 0.00 | 80 | 1003.5 |
| 20260506040047 | 55 | 54 | 1.0 | 5.0 | 0.00 | 0.00 | 0.00 | 80 | 1003.4 |
| 20260506034521 | 56 | 353 | 2.0 | 5.0 | 0.00 | 0.00 | 0.00 | 81 | 1003.5 |